Location: DARK SKY Beskydy - Park tmavé oblohy, www.darkskybeskydy.cz
(49.4926°N, 18.5016°E)
Time: 04:35:36
(UTC+01:00)

Envisat - Pass Details

Date: 05 December 2022
Orbit: 763 x 765 km, 98.2° (Epoch: 05 February)

Event Time Altitude Azimuth Distance (km) Brightness Sun altitude
Rises 04:04:04 0° 14° (NNE) 3,245 6.4 -31.7°
Reaches altitude 10° 04:06:24 10° 16° (NNE) 2,314 5.6 -31.3°
Enters shadow 04:08:31 26° 19° (NNE) 1,498 4.6 -30.9°
